Dewpoint
64 64 64 65 65 66 68 69 69 70 72 72 73 72 73 73 73 73 74 75 74 73 73 72 71 71 72 70 70 71 72 73 73 74 73 72 75 75 77 75 77 77 77 76 76 76 75 75 75 75 75 75 75 74 75 75 76 76 76 77 72 71 69 68 70 69 69 66 69 66 67 68 66 69 68 66 66 67 68 69 69 69 69 70 72
64 64 64 65 65 66 67 69 70 70 72 72 72 72 73 73 73 73 74 75 74 73 73 73 73 72 71 70 70 70 72 72 73 74 74 74 77 77 77 76 77 77 77 77 77 75 75 74 75 75 75 76 76 77 76 76 76 74 74 73 74 71 69 68 68 69 65 64 64 65 64 65 68 65 63 62 63 64 65 68 70 66 63 64 68
63 63 64 64 65 66 67 68 69 69 71 71 72 72 73 73 74 75 74 74 74 74 74 74 73 73 71 72 71 71 73 73 73 74 74 73 75 76 76 77 77 77 76 76 76 75 74 74 75 75 75 75 75 74 74 75 75 75 75 74 70 71 71 71 72 71 63 65 68 68 63 65 67 67 64 63 61 62 63 63 64 62 61 64 69
63 63 63 64 65 66 67 68 69 69 71 71 71 72 72 74 74 75 74 74 75 75 75 74 74 74 74 74 74 73 73 75 75 75 75 74 74 75 76 76 76 75 76 75 75 75 75 74 75 75 76 76 75 74 74 74 75 74 72 74 75 68 65 67 70 72 68 66 64 64 64 64 60 63 65 63 61 60 60 60 62 62 62 67 70
63 63 63 63 65 65 67 68 69 69 70 70 71 71 70 72 74 75 74 74 75 75 75 75 75 74 74 75 75 75 75 74 74 73 74 74 73 74 74 75 76 75 75 75 75 76 76 76 75 75 75 76 75 74 74 72 74 74 76 75 74 72 66 66 68 68 69 73 68 66 64 62 62 62 62 64 60 58 58 58 64 64 61 67 67
63 63 63 64 65 65 67 68 68 68 69 70 70 70 71 72 73 75 75 74 74 75 75 74 74 73 73 73 72 72 71 72 71 72 72 72 72 73 75 74 75 76 76 75 75 75 76 76 76 75 74 75 75 73 74 75 74 73 75 74 73 75 73 67 65 69 69 73 72 68 68 63 65 66 63 63 70 61 61 58 60 60 61 64 69
62 62 63 63 65 65 67 68 68 68 69 70 70 70 71 72 73 74 74 75 74 75 75 75 74 74 73 72 72 72 71 72 74 74 73 73 74 74 74 75 75 75 74 75 75 76 75 76 76 75 74 74 76 76 74 72 72 74 75 75 74 76 75 71 69 65 71 70 66 66 68 69 65 66 65 66 62 65 62 58 59 60 58 58 57
60 62 63 64 65 65 66 67 67 67 68 69 69 70 71 73 73 74 74 75 75 75 75 75 74 74 74 73 73 73 71 73 75 75 75 75 74 74 73 73 75 75 75 76 76 76 76 75 76 75 75 74 75 74 74 73 74 75 76 77 77 77 75 72 69 67 67 68 69 68 67 68 70 67 66 64 65 64 62 61 59 58 58 58 59
60 60 62 63 64 65 65 66 66 67 67 68 69 70 71 72 73 74 74 75 75 76 75 75 75 74 74 73 74 73 73 74 75 75 75 75 75 74 74 73 74 75 75 75 76 75 76 75 76 75 75 75 75 74 74 74 74 75 76 76 75 76 75 74 74 72 67 67 70 70 69 67 66 66 69 68 65 63 58 61 63 63 61 60 64
59 60 62 63 64 64 65 66 66 66 67 68 69 69 70 71 73 73 74 74 75 75 75 75 75 75 74 74 74 74 74 75 74 75 75 75 75 74 74 74 73 74 75 76 76 76 76 76 75 74 75 74 74 74 75 75 75 75 75 74 75 75 76 75 73 73 70 70 69 72 72 70 70 68 65 65 64 67 62 60 61 61 60 63 65
59 59 61 63 64 64 65 65 66 67 67 68 68 69 69 70 72 73 74 74 75 75 75 75 75 75 74 75 74 74 75 75 74 74 73 74 73 73 73 73 73 73 73 75 75 75 75 76 74 74 74 75 75 75 74 73 72 73 73 76 77 76 75 75 75 74 73 73 70 72 70 66 68 67 68 68 65 65 65 59 58 61 60 61 65
61 59 60 63 65 65 65 66 66 67 67 67 67 68 69 70 71 73 74 74 75 75 75 74 74 74 74 75 75 75 75 73 74 74 74 74 73 73 73 73 73 74 74 73 74 72 75 75 76 75 75 75 75 75 74 73 73 74 74 76 76 77 77 75 73 73 71 73 70 67 67 66 67 67 66 68 68 67 67 64 62 66 64 61 64
61 60 60 62 63 64 64 66 68 68 68 68 67 68 69 70 72 72 73 74 75 74 75 75 74 74 74 74 74 75 75 75 74 74 74 74 74 74 74 73 73 74 74 73 73 74 75 76 76 75 76 76 76 75 76 76 76 74 75 74 75 76 75 75 73 72 71 70 67 67 67 65 66 67 67 65 67 69 69 67 61 63 63 61 66
62 60 59 61 63 63 65 66 67 67 67 67 67 68 69 70 72 72 73 74 75 75 74 75 74 74 75 74 74 75 75 74 74 73 73 74 75 75 73 72 74 74 73 74 73 73 74 75 76 75 76 76 77 77 77 76 77 75 75 75 74 76 76 76 75 73 73 73 72 69 67 66 66 66 66 66 64 64 65 64 67 65 62 62 67
65 61 60 61 62 64 65 66 67 67 66 66 67 69 71 70 72 72 73 73 74 74 74 74 74 74 74 74 74 74 73 73 73 73 74 73 72 73 75 73 72 73 74 75 76 75 75 76 76 75 76 77 77 77 76 77 78 77 77 76 76 76 76 75 73 72 70 72 73 72 70 67 67 68 66 65 65 65 65 65 68 65 61 60 62
67 62 61 62 64 65 66 66 66 67 67 66 67 69 69 70 72 72 72 73 73 74 74 74 74 74 75 75 74 74 75 74 75 75 75 73 74 74 75 76 75 75 76 76 75 75 75 75 75 75 76 76 77 77 77 77 78 77 76 76 76 74 76 75 74 73 72 73 72 73 72 67 69 67 68 67 67 68 68 68 70 69 65 63 64
68 67 67 64 63 64 65 66 65 66 66 66 69 70 71 71 71 72 72 72 72 74 73 74 74 74 74 74 74 74 73 73 72 73 71 73 74 74 73 73 75 76 74 75 75 76 76 75 75 74 76 77 77 77 77 77 78 77 75 77 76 74 76 75 74 74 74 71 71 72 72 71 71 73 71 69 72 74 71 70 69 67 70 67 65
68 68 68 67 64 65 65 65 65 66 65 67 70 70 71 72 72 72 71 72 71 72 72 73 74 74 74 74 74 74 72 71 71 72 72 73 74 74 74 74 73 73 74 73 75 75 76 76 76 76 75 76 76 76 76 77 78 76 76 77 75 77 76 76 75 74 74 74 73 72 72 70 72 71 69 69 72 74 70 69 70 70 72 69 68
66 68 68 70 67 66 66 65 64 67 67 68 68 69 70 71 72 72 71 70 70 70 70 72 73 72 72 73 73 73 73 72 72 73 73 73 72 72 73 73 73 75 76 76 76 74 76 76 77 75 76 76 77 76 77 78 78 76 75 74 76 77 76 76 76 75 74 74 75 73 74 72 73 72 72 69 71 72 71 70 71 72 72 71 71
65 68 68 68 69 71 69 66 65 66 68 66 66 68 68 69 71 72 72 72 72 71 71 71 71 71 71 73 73 74 74 73 74 74 72 72 73 72 73 72 73 74 74 75 75 74 75 74 73 73 73 74 75 75 76 77 77 76 74 73 74 77 76 76 75 75 73 74 75 74 75 74 73 73 73 72 73 72 72 70 71 72 72 71 72
64 67 68 68 68 69 71 72 69 66 66 67 66 67 67 68 68 70 71 71 70 70 71 71 71 71 72 72 72 73 72 72 72 72 72 73 73 74 72 72 74 74 74 74 75 75 76 75 73 74 73 75 76 75 76 77 77 76 76 76 76 77 76 75 76 76 74 75 75 75 75 75 75 74 73 72 71 72 73 72 73 72 70 72 72
65 65 65 68 69 69 71 71 72 71 67 67 66 67 67 67 67 67 69 70 70 69 70 71 71 71 71 71 71 71 72 72 71 72 72 72 73 73 74 75 73 74 75 73 75 74 75 75 74 75 75 75 76 77 75 75 76 75 75 73 74 76 77 76 76 76 76 74 74 75 75 74 76 75 73 71 70 69 69 69 71 71 71 71 74
64 65 65 67 69 69 70 70 71 71 70 68 67 68 67 69 69 70 71 71 71 70 70 72 71 71 71 71 71 71 72 72 70 70 70 69 71 72 74 73 71 71 74 74 74 73 76 76 75 75 77 76 77 75 75 75 75 76 75 74 73 75 76 75 75 76 75 75 74 75 74 74 73 74 74 73 72 72 72 72 72 72 73 72 73
65 66 66 68 69 70 69 69 70 70 71 70 70 69 69 70 70 71 71 72 72 71 72 73 73 72 70 70 71 71 69 70 69 69 69 69 69 70 73 72 71 70 72 74 74 74 76 77 76 76 77 76 76 75 75 75 76 75 75 75 75 76 75 75 75 74 74 75 74 75 74 74 75 75 75 74 74 73 74 74 74 74 75 74 74
64 65 66 67 68 68 69 69 70 69 70 70 70 70 69 69 70 70 71 72 73 73 73 72 72 73 72 70 70 69 69 69 69 68 68 69 69 69 71 70 70 69 71 73 75 76 76 76 74 75 76 76 76 76 76 75 74 74 75 74 74 76 75 75 75 76 75 75 75 74 74 74 75 74 74 73 73 74 74 73 73 74 74 74 74
63 64 65 66 67 69 69 70 69 70 70 70 70 71 70 70 70 71 71 73 73 74 74 73 72 71 73 72 71 70 69 70 69 68 68 68 68 69 69 70 70 70 72 71 73 74 75 76 76 75 75 76 76 76 77 76 74 73 74 74 74 75 75 75 75 75 75 75 74 75 75 75 74 73 72 73 75 75 74 73 73 74 74 74 75
62 64 64 65 66 67 67 69 69 69 70 71 71 72 72 72 71 72 72 73 74 74 74 74 72 72 73 73 73 73 73 72 71 69 69 69 69 69 69 69 70 70 71 70 71 73 75 75 76 75 74 75 76 75 77 77 76 75 75 75 73 74 75 75 75 74 74 74 74 74 75 75 74 74 73 73 74 74 74 74 75 75 74 74 73
62 63 63 64 64 65 66 67 68 69 70 70 70 71 71 72 72 72 74 73 73 73 74 74 74 73 73 73 74 74 75 74 74 74 73 71 70 70 71 71 71 71 70 70 69 71 72 73 73 74 75 75 76 75 77 77 76 75 75 75 75 74 73 74 73 74 74 73 73 73 72 73 74 75 75 74 75 74 75 74 73 75 75 75 73
61 62 63 63 64 65 66 66 68 69 69 70 70 71 72 72 72 72 73 73 74 74 73 73 74 75 75 74 75 75 76 76 75 75 74 74 73 73 73 73 73 72 69 70 70 69 70 71 72 73 74 73 72 73 73 75 75 76 75 74 75 74 74 74 74 72 73 74 74 72 72 71 74 76 77 77 76 76 74 74 75 76 76 75 75
60 62 62 63 64 64 65 66 67 68 69 70 70 70 70 71 72 72 72 73 73 73 72 72 72 73 73 73 74 75 75 76 75 75 76 75 74 74 73 73 73 72 73 73 73 72 71 71 71 73 73 72 72 71 75 72 73 74 75 73 73 75 75 75 75 75 73 73 72 71 70 74 76 77 77 77 75 75 75 74 75 75 76 76 75
60 62 62 63 63 63 64 64 65 66 67 68 69 70 71 70 71 72 72 72 73 72 72 72 71 72 72 71 71 71 73 73 74 75 75 74 74 73 74 74 74 74 74 75 73 72 71 70 69 70 70 70 70 70 71 67 67 69 74 75 75 76 76 76 75 76 75 73 72 73 73 74 76 76 77 77 76 75 74 74 74 75 76 76 74
60 61 62 62 62 62 63 64 64 65 65 66 67 67 66 67 68 70 70 71 71 70 71 71 72 72 72 71 71 70 71 71 72 72 73 74 74 74 74 74 73 73 74 73 72 72 72 70 68 69 68 68 69 71 67 66 66 66 70 74 73 73 73 74 74 73 73 73 72 72 71 70 72 73 73 75 76 76 74 73 73 73 73 74 74
60 61 62 61 61 61 62 63 62 63 63 64 65 64 64 65 66 67 68 70 70 70 70 70 71 72 72 72 71 71 70 71 71 71 71 72 73 73 73 73 72 73 73 73 74 73 73 72 70 71 69 68 68 69 66 66 65 65 65 71 72 73 72 71 72 73 73 74 74 74 72 72 70 73 73 73 75 75 76 74 72 72 72 71 68
59 60 59 59 60 60 59 59 59 60 61 61 62 62 62 64 64 65 65 65 65 66 66 66 68 70 72 71 71 71 70 70 71 71 71 71 71 71 73 74 73 73 73 72 71 73 73 74 73 72 72 70 69 66 64 65 64 63 64 67 72 72 72 72 73 73 72 72 74 74 74 74 73 74 74 74 73 74 74 74 74 74 74 73 74
58 58 57 58 59 59 58 57 57 57 59 59 60 61 61 61 61 62 63 63 63 63 63 64 65 66 68 71 71 70 71 71 71 70 71 71 72 71 71 73 74 74 73 74 73 73 73 73 72 71 71 69 66 60 60 60 62 62 63 66 71 71 71 73 73 73 74 74 74 74 74 73 73 74 74 73 72 73 74 73 73 72 72 72 73
56 57 58 58 56 55 54 55 56 55 56 56 56 57 57 58 59 60 61 61 61 62 62 63 63 64 64 65 67 69 70 71 71 70 70 70 71 71 71 72 72 73 73 73 72 73 73 72 73 73 72 70 68 59 59 59 60 60 63 68 72 73 72 72 73 73 73 74 73 74 74 74 74 74 74 70 71 73 72 72 72 72 72 71 70
55 55 56 57 55 55 55 55 54 54 55 57 57 57 57 56 57 58 60 59 60 60 61 62 62 63 63 64 64 65 66 67 69 70 70 70 70 70 71 72 71 73 72 71 71 71 72 71 72 72 72 71 70 62 58 58 59 61 66 71 72 71 72 71 71 71 71 71 72 72 73 72 72 74 69 63 64 70 72 72 72 71 71 70 70
54 56 56 56 55 54 54 52 54 54 55 56 57 58 57 57 57 57 58 59 59 60 61 62 62 62 63 63 64 64 64 65 66 67 68 69 70 70 71 72 72 72 73 73 73 72 71 71 71 72 70 70 65 60 56 56 57 60 69 73 73 73 73 73 73 73 73 73 73 72 72 73 73 73 62 60 62 70 73 73 73 72 71 71 71
54 55 55 55 55 55 54 55 54 54 56 56 55 55 54 55 55 54 55 56 57 58 59 60 60 60 61 63 64 63 63 64 64 65 66 67 68 68 68 69 69 70 71 72 72 71 71 72 72 71 70 67 64 63 56 55 55 56 68 73 73 72 72 72 71 71 72 72 73 73 73 72 72 67 58 59 61 70 73 72 72 72 71 72 71
54 56 56 57 58 56 53 53 53 55 55 56 55 55 57 55 54 53 54 55 57 58 58 58 58 59 59 60 61 62 63 63 62 63 65 65 66 67 68 67 67 68 69 70 71 70 70 70 70 67 65 65 66 66 62 55 54 55 58 73 73 73 72 71 72 72 72 72 72 73 71 64 61 59 58 56 57 60 68 71 72 71 71 71 71
53 54 57 55 54 53 52 53 56 56 54 54 55 54 55 56 55 55 55 55 56 57 57 59 58 56 57 58 58 59 59 60 61 61 62 63 64 66 67 68 68 68 68 68 68 69 69 68 66 67 67 66 66 66 64 54 53 53 55 64 71 71 71 71 71 71 70 69 70 69 69 64 58 56 54 52 52 55 59 67 70 71 72 72 68
56 57 55 53 52 53 53 53 55 54 54 55 55 56 56 56 54 54 54 55 56 56 57 57 58 57 57 57 59 59 59 59 60 60 61 62 62 62 64 67 69 69 68 68 67 68 67 66 66 66 66 67 66 65 65 57 53 52 52 56 68 69 69 70 69 69 68 66 66 66 67 65 57 55 53 51 50 52 55 64 68 61 58 59 66
54 54 53 51 52 52 51 52 52 52 52 52 53 55 55 55 55 55 54 55 55 56 57 56 56 56 56 56 57 58 59 59 59 59 59 59 60 61 62 64 64 65 64 64 66 67 67 65 65 64 65 64 65 64 62 62 56 51 51 52 53 62 60 70 68 66 65 65 67 67 67 67 55 51 49 50 50 51 57 65 58 56 55 56 62
51 51 51 52 52 52 51 52 52 54 54 54 54 55 55 55 56 57 55 55 55 56 57 56 56 55 55 55 56 58 58 58 59 60 59 59 59 59 61 61 61 62 62 63 64 65 65 63 62 63 63 63 64 65 62 61 60 54 51 50 52 54 56 63 66 63 66 65 65 65 64 54 50 47 48 50 51 54 60 54 52 53 56 60 66
51 50 53 51 50 50 49 50 50 53 54 55 54 54 54 55 56 57 56 55 55 55 55 55 55 55 56 55 56 57 58 58 58 58 59 59 59 58 59 60 60 59 60 60 60 60 60 61 60 60 61 61 62 63 62 60 59 59 54 52 53 55 55 56 64 63 63 62 60 52 50 51 52 51 50 52 55 58 56 56 55 56 63 67 68
52 53 52 51 49 49 48 48 49 49 51 53 52 53 54 55 56 56 55 55 56 56 56 56 54 55 55 54 53 52 54 56 55 56 57 57 58 57 56 56 55 55 58 58 58 57 57 58 59 60 60 59 59 59 60 61 60 59 58 56 55 57 58 58 59 61 59 57 55 53 53 53 55 59 67 66 65 66 62 60 59 63 69 67 66
53 53 52 50 49 48 48 48 49 49 49 50 52 52 55 56 56 52 53 55 56 55 56 56 55 54 56 56 54 51 51 52 53 52 52 54 56 55 56 55 55 53 54 55 55 55 55 54 55 56 57 58 58 58 58 58 60 59 59 59 60 60 58 58 61 61 60 60 61 62 60 57 56 57 58 59 59 62 66 68 67 66 66 66 66
54 54 54 52 50 49 49 49 50 51 51 50 50 51 53 53 51 51 52 55 55 54 53 54 53 54 54 54 54 55 53 50 52 52 52 52 54 55 54 54 53 52 52 51 53 53 52 52 53 54 57 57 56 55 56 55 55 56 57 58 58 60 59 60 60 59 59 60 61 61 60 65 66 65 65 64 64 66 66 66 65 65 65 66 66
54 54 54 54 53 51 52 50 50 51 52 53 54 53 53 54 53 53 54 54 53 54 54 53 52 52 52 54 52 51 51 51 53 55 55 55 54 53 55 54 54 54 53 51 52 51 52 51 53 54 55 54 54 54 55 49 56 49 53 54 56 56 56 59 57 50 57 61 64 64 64 63 63 60 61 62 63 64 64 64 64 64 64 64 66
54 54 55 55 54 53 52 51 51 52 52 52 52 53 53 51 53 54 53 53 53 51 50 49 49 48 47 49 50 50 52 52 50 52 53 53 54 51 53 54 52 54 51 47 48 52 51 53 53 53 54 52 52 54 49 43 42 41 42 43 44 42 42 49 50 49 54 62 63 63 62 61 60 61 60 61 60 61 61 61 61 61 63 62 64
53 53 54 54 54 53 52 52 52 52 52 53 52 51 53 52 52 52 51 53 53 52 50 49 49 47 47 48 48 49 51 53 53 51 51 51 50 55 46 46 51 52 47 43 43 44 46 48 54 54 54 51 50 47 43 42 41 41 41 41 41 41 41 41 43 55 61 61 61 61 59 59 59 59 59 59 61 61 60 60 60 61 62 62 62